[[{"header":{"parameterUnit":"m.s-1","parameterCategory":1,"la1":30.2991,"la2":30.254,"lo1":-89.0895,"lo2":-89.0444,"dy":0.0017,"dx":0.0017,"nx":28,"ny":28,"refTime":"2023-11-23T03:00:00:Z","depth":0,"parameterNumber":2,"parameterNumberName":"U-component_of_WINDS"},"data":[0,0,0,0,0,0,0,0,0,0,0,0,0,0,0,0,0,0,0,0,0,0,0,0,0,0,0,0,0,0,0,0,0,0,0,0,0,0,0,0,0,0,0,0,0,0,0,0,0,0,0,0,0,0,0,0,0,0,0.9142,0.9142,0,0.9095,0.9094,0.9094,0.9087,0.9088,0.9088,0.9089,0.9035,0.9034,0.9032,0,0,0,0,0,0,0,0,0,0,0,0,0,0.9223,0.9222,0.9143,0.9142,0.9141,0.9095,0.9094,0.9094,0.9087,0.9088,0.9088,0.9089,0.9036,0.9034,0.9032,0,0,0,0,0,0,0,0,0,0,0,0,0,0.9183,0.9221,0.9143,0.9133,0.9131,0.9095,0.9094,0.9094,0.9087,0.9088,0.9088,0.9089,0.9037,0.9034,0.9031,0.9001,0,0,0.9023,0.9022,0,0,0,0,0,0,0,0,0.9185,0.918,0.9135,0.9133,0.9132,0.9098,0.9103,0.9062,0.9087,0.9104,0.9089,0.9089,0.9055,0.9051,0.904,0.8998,0.8996,0.9023,0.9021,0.902,0.9019,0,0,0,0,0,0,0,0.9188,0.9182,0.9124,0.9134,0.9132,0.9129,0.9124,0.9096,0.9076,0.9102,0.9102,0.9096,0.9055,0.9043,0.9039,0.8995,0.9023,0.902,0.9018,0.9017,0.8924,0.8923,0,0,0,0,0,0,0.9193,0.9184,0.9125,0.9122,0.9161,0.9127,0.9122,0.9108,0.9076,0.9072,0.9096,0.9096,0.9048,0.9042,0.9037,0.8998,0.902,0.9017,0.9016,0.8925,0.8924,0.8923,0,0,0,0,0,0,0.9195,0.9188,0.9127,0.9153,0.9145,0.9125,0.911,0.9107,0.9095,0.9072,0.9068,0.9088,0.9048,0.9041,0.901,0.8996,0.9016,0.9013,0.8926,0.8925,0.8923,0.8921,0,0,0,0,0,0,0.9197,0.9189,0.9178,0.9153,0.9144,0.9102,0.9109,0.9105,0.9091,0.9091,0.9063,0.9059,0.9048,0.9014,0.9007,0.8993,0.9011,0.8927,0.8925,0.8924,0.8922,0.892,0.8918,0,0,0,0,0,0.92,0.9178,0.9177,0.917,0.913,0.9101,0.9095,0.9084,0.909,0.9078,0.9063,0.906,0.9,0.9011,0.9003,0.8988,0.8928,0.8926,0.8924,0.8923,0.892,0.8918,0,0,0,0,0,0,0.92,0.9175,0.9173,0.9143,0.9124,0.91,0.9084,0.9082,0.906,0.906,0.9046,0.904,0.9009,0.8995,0.9009,0.8956,0.8964,0.896,0.8966,0.8963,0.8961,0.8964,0.9009,0,0,0,0,0,0.9197,0.9177,0.9155,0.913,0.9121,0.9105,0.9092,0.9085,0.9064,0.9056,0.9038,0.9017,0.8993,0.8978,0.8954,0.8921,0.8913,0.8906,0.8904,0.8903,0.8899,0.8879,0.8875,0.8917,0.8917,0.8917,0,0,0.919,0.9173,0.9161,0.913,0.9115,0.9093,0.9098,0.9075,0.9058,0.9052,0.9021,0.9008,0.8983,0.895,0.8935,0.8938,0.8886,0.89,0.8899,0.8896,0.8877,0.8873,0.8869,0.8916,0.8916,0.8916,0,0,0.9164,0.9151,0.9128,0.9113,0.909,0.908,0.9074,0.905,0.9041,0.9011,0.9006,0.8985,0.8945,0.8927,0.8913,0.8882,0.8878,0.8875,0.8862,0.8843,0.884,0.8837,0.8824,0.882,0.8872,0.8872,0.8872,0,0.9157,0.9125,0.9116,0.9093,0.9079,0.9075,0.9051,0.9036,0.9006,0.8996,0.9001,0.895,0.8933,0.8895,0.8888,0.8877,0.8869,0.8877,0.8841,0.8838,0.8835,0.8823,0.8818,0.8871,0.8871,0.8871,0.8871,0,0.9117,0.9095,0.9079,0.9052,0.9036,0.9013,0.8999,0.8984,0.8979,0.8967,0.8935,0.8916,0.8888,0.8879,0.8873,0.884,0.8843,0.8845,0.8852,0.8831,0.8819,0.8814,0.8871,0.8871,0.8871,0.8871,0,0,0.9089,0.9058,0.9052,0.9039,0.9015,0.8997,0.8973,0.8947,0.8934,0.8914,0.8892,0.8858,0.886,0.8844,0.8836,0.8819,0.8794,0.8823,0.8822,0.8817,0.8755,0.8752,0.8747,0.8792,0.8791,0.8791,0.8757,0,0.9059,0.9018,0.9009,0.8972,0.8951,0.8947,0.8926,0.8907,0.8896,0.8875,0.8862,0.8838,0.8843,0.8833,0.8816,0.8801,0.8781,0.8803,0.877,0.8769,0.8774,0.8741,0.8738,0.8707,0.8752,0.8751,0.8751,0,0.9019,0.8999,0.8961,0.8939,0.8929,0.8911,0.8886,0.8867,0.8846,0.8838,0.8821,0.8815,0.8789,0.8799,0.8761,0.8776,0.8762,0.8753,0.8751,0.8746,0.8757,0.8733,0.8697,0.8691,0.8744,0.8744,0.8745,0,0.9,0.8964,0.8936,0.8926,0.8899,0.8886,0.8874,0.8854,0.8839,0.8818,0.8807,0.8783,0.8769,0.8749,0.8736,0.8745,0.8698,0.8708,0.869,0.869,0.8678,0.8679,0.8637,0.8673,0.8673,0.8673,0.8673,0,0.8967,0.8943,0.8927,0.891,0.8883,0.8873,0.8846,0.8834,0.8816,0.8795,0.879,0.877,0.8755,0.8733,0.8723,0.8692,0.8686,0.8678,0.8675,0.8677,0.8678,0.8666,0.8667,0.8672,0.8672,0.8672,0.8673,0,0.894,0.8929,0.8898,0.8876,0.887,0.8851,0.8832,0.8814,0.8803,0.8777,0.877,0.8752,0.8726,0.8712,0.8678,0.8671,0.8636,0.8636,0.8644,0.8642,0.8624,0.8625,0.8572,0.8563,0.8606,0.8606,0.8606,0,0.8918,0.89,0.8877,0.8863,0.8852,0.883,0.8815,0.8805,0.8789,0.8764,0.8749,0.8722,0.8701,0.8658,0.8641,0.8616,0.8613,0.8596,0.8609,0.8611,0.861,0.8611,0.8608,0.8593,0.8593,0.8592,0.8592,0,0.8881,0.8877,0.8856,0.8834,0.8816,0.8798,0.8779,0.8768,0.8755,0.8737,0.8711,0.8694,0.8661,0.8634,0.8607,0.8593,0.8589,0.8589,0.8583,0.8583,0.8588,0.8583,0.8635,0.8589,0.8589,0.859,0.859,0.859,0.8855,0.8838,0.8819,0.8796,0.8782,0.8765,0.8747,0.8734,0.8713,0.8686,0.8681,0.8652,0.8631,0.8595,0.858,0.8557,0.856,0.8552,0.855,0.8547,0.8545,0.8594,0.8552,0.8552,0.8552,0.8553,0.8553,0,0.8815,0.8803,0.8783,0.8757,0.8739,0.874,0.872,0.8704,0.8679,0.8661,0.864,0.8609,0.8583,0.8565,0.8539,0.8523,0.8521,0.8516,0.8516,0.8513,0.8545,0.8552,0.8519,0.8519,0.8519,0.8519,0.8519,0.8519,0.8792,0.8764,0.8757,0.8721,0.8709,0.8682,0.867,0.8654,0.8639,0.8605,0.8584,0.8573,0.8554,0.8526,0.8502,0.8497,0.8487,0.8482,0.8477,0.8507,0.851,0.8514,0.852,0.8481,0.848,0.8446,0.8446,0.8445]},{"header":{"parameterUnit":"m.s-1","parameterCategory":1,"la1":30.2991,"la2":30.254,"lo1":-89.0895,"lo2":-89.0444,"dy":0.0017,"dx":0.0017,"nx":28,"ny":28,"refTime":"2023-11-23T03:00:00:Z","depth":0,"parameterNumber":3,"parameterNumberName":"V-component_of_WINDS"},"data":[0,0,0,0,0,0,0,0,0,0,0,0,0,0,0,0,0,0,0,0,0,0,0,0,0,0,0,0,0,0,0,0,0,0,0,0,0,0,0,0,0,0,0,0,0,0,0,0,0,0,0,0,0,0,0,0,0,0,-4.8199,-4.8201,0,-4.8364,-4.8366,-4.8368,-4.8311,-4.8307,-4.8303,-4.83,-4.8465,-4.8472,-4.848,0,0,0,0,0,0,0,0,0,0,0,0,0,-4.783,-4.7837,-4.8199,-4.8201,-4.8203,-4.8364,-4.8366,-4.8368,-4.8311,-4.8307,-4.8302,-4.8298,-4.8462,-4.8472,-4.8481,0,0,0,0,0,0,0,0,0,0,0,0,0,-4.7992,-4.784,-4.8198,-4.8194,-4.8195,-4.8363,-4.8366,-4.8369,-4.8312,-4.8307,-4.8301,-4.8296,-4.8459,-4.8471,-4.8482,-4.8663,0,0,-4.8518,-4.8523,0,0,0,0,0,0,0,0,-4.7983,-4.8006,-4.8193,-4.8195,-4.8196,-4.8311,-4.8297,-4.8468,-4.8313,-4.8268,-4.83,-4.8293,-4.8418,-4.8433,-4.8475,-4.8671,-4.8678,-4.8519,-4.8526,-4.8531,-4.8534,0,0,0,0,0,0,0,-4.7972,-4.7998,-4.8264,-4.8195,-4.8198,-4.8182,-4.8199,-4.8329,-4.8371,-4.8271,-4.8267,-4.8288,-4.8418,-4.8464,-4.8479,-4.8681,-4.8519,-4.8529,-4.8536,-4.8541,-4.9034,-4.904,0,0,0,0,0,0,-4.796,-4.799,-4.8259,-4.8269,-4.8074,-4.8194,-4.8213,-4.828,-4.837,-4.8378,-4.8292,-4.8285,-4.8447,-4.8465,-4.8485,-4.8704,-4.8531,-4.8542,-4.8549,-4.9028,-4.9035,-4.9042,0,0,0,0,0,0,-4.7953,-4.7985,-4.8252,-4.8128,-4.8161,-4.8206,-4.8282,-4.8286,-4.8332,-4.8386,-4.8393,-4.8333,-4.8444,-4.8468,-4.862,-4.8708,-4.8547,-4.8558,-4.9021,-4.903,-4.9038,-4.9142,0,0,0,0,0,0,-4.7942,-4.7983,-4.8053,-4.8131,-4.8168,-4.8386,-4.8287,-4.8293,-4.8353,-4.8345,-4.8425,-4.8433,-4.8441,-4.8603,-4.8631,-4.8722,-4.8567,-4.9013,-4.9025,-4.9036,-4.9131,-4.9154,-4.9173,0,0,0,0,0,-4.7929,-4.8075,-4.8057,-4.809,-4.8257,-4.8391,-4.8413,-4.842,-4.8361,-4.8431,-4.8465,-4.8431,-4.8694,-4.8619,-4.8651,-4.8746,-4.9007,-4.9021,-4.9035,-4.9122,-4.915,-4.9173,0,0,0,0,0,0,-4.8005,-4.8085,-4.8066,-4.824,-4.831,-4.8382,-4.8471,-4.8449,-4.8536,-4.8524,-4.8528,-4.8546,-4.8703,-4.8739,-4.8654,-4.8926,-4.8841,-4.8862,-4.8897,-4.8924,-4.8944,-4.8933,-4.8577,0,0,0,0,0,-4.8042,-4.8146,-4.8209,-4.8357,-4.8393,-4.8426,-4.8485,-4.8485,-4.8556,-4.8585,-4.863,-4.8699,-4.8798,-4.8862,-4.8956,-4.9136,-4.9153,-4.9217,-4.9238,-4.9255,-4.9273,-4.9371,-4.9401,-4.9087,-4.9087,-4.9086,0,0,-4.8119,-4.8176,-4.8241,-4.8374,-4.8427,-4.8534,-4.8451,-4.8567,-4.8646,-4.8602,-4.8749,-4.8784,-4.8862,-4.9029,-4.9105,-4.9064,-4.9363,-4.9272,-4.9285,-4.9295,-4.9389,-4.9418,-4.9445,-4.9096,-4.9094,-4.9093,0,0,-4.8315,-4.8368,-4.8498,-4.8554,-4.8636,-4.8658,-4.8689,-4.8764,-4.8787,-4.8935,-4.8904,-4.8997,-4.9166,-4.9223,-4.9274,-4.9492,-4.9463,-4.9522,-4.9632,-4.9728,-4.9753,-4.9775,-4.9853,-4.9881,-4.954,-4.954,-4.954,0,-4.84,-4.8561,-4.8566,-4.8686,-4.8745,-4.8712,-4.8843,-4.8896,-4.9005,-4.9046,-4.8999,-4.9211,-4.9261,-4.9441,-4.9495,-4.9537,-4.9572,-4.9513,-4.9749,-4.9771,-4.9792,-4.9867,-4.9896,-4.9546,-4.9546,-4.9545,-4.9544,0,-4.8662,-4.8774,-4.8868,-4.8976,-4.9046,-4.917,-4.9194,-4.9264,-4.9257,-4.9283,-4.9434,-4.9492,-4.9598,-4.964,-4.9634,-4.982,-4.9792,-4.9747,-4.9663,-4.9828,-4.9899,-4.9928,-4.9556,-4.9554,-4.9552,-4.955,0,0,-4.891,-4.902,-4.9055,-4.9104,-4.9193,-4.9279,-4.9401,-4.9506,-4.9566,-4.9641,-4.9744,-4.9888,-4.9848,-4.9906,-4.9906,-4.999,-5.016,-4.9935,-4.9937,-4.9975,-5.0369,-5.0403,-5.0436,-5.0141,-5.0146,-5.0151,-5.0363,0,-4.9114,-4.9331,-4.934,-4.9538,-4.9641,-4.9611,-4.9717,-4.9783,-4.981,-4.9901,-4.993,-5.0033,-4.9971,-5.0006,-5.0088,-5.0122,-5.0239,-5.0107,-5.0236,-5.0241,-5.0219,-5.0473,-5.0509,-5.0706,-5.039,-5.0395,-5.0398,0,-4.9381,-4.9467,-4.9676,-4.9751,-4.9795,-4.9891,-4.9987,-5.0074,-5.0148,-5.0162,-5.0227,-5.0215,-5.0339,-5.025,-5.0422,-5.0331,-5.0385,-5.0409,-5.0417,-5.043,-5.033,-5.0494,-5.0769,-5.0799,-5.0441,-5.0438,-5.0435,0,-4.9543,-4.971,-4.9857,-4.99,-4.9991,-5.0059,-5.01,-5.0168,-5.023,-5.0314,-5.0354,-5.0451,-5.0504,-5.0578,-5.0592,-5.0526,-5.0765,-5.0676,-5.0779,-5.0779,-5.0832,-5.0828,-5.1121,-5.0864,-5.0864,-5.0863,-5.0863,0,-4.977,-4.9899,-4.9931,-5.0022,-5.0165,-5.0173,-5.0314,-5.035,-5.0411,-5.0507,-5.0485,-5.0575,-5.0588,-5.0681,-5.0693,-5.0833,-5.0857,-5.0871,-5.0873,-5.0874,-5.0872,-5.091,-5.0897,-5.0871,-5.087,-5.0868,-5.0867,0,-4.9975,-5.0002,-5.016,-5.0233,-5.0255,-5.0357,-5.042,-5.0506,-5.0531,-5.0652,-5.0681,-5.072,-5.0829,-5.085,-5.0978,-5.0985,-5.1153,-5.114,-5.1129,-5.1128,-5.1231,-5.1221,-5.1558,-5.1603,-5.1316,-5.1319,-5.1321,0,-5.0119,-5.0218,-5.0302,-5.0366,-5.0411,-5.0513,-5.0577,-5.0588,-5.0656,-5.0747,-5.0822,-5.0929,-5.1015,-5.1189,-5.1228,-5.1326,-5.1316,-5.1427,-5.1331,-5.1329,-5.1319,-5.1314,-5.1324,-5.1446,-5.1449,-5.1452,-5.1454,0,-5.0372,-5.038,-5.0474,-5.0574,-5.0651,-5.0729,-5.0803,-5.0856,-5.0877,-5.0953,-5.1065,-5.1132,-5.1263,-5.1369,-5.1467,-5.1507,-5.1485,-5.1484,-5.1513,-5.1516,-5.1506,-5.1514,-5.1181,-5.1476,-5.1474,-5.1472,-5.1471,-5.147,-5.0551,-5.0638,-5.0712,-5.0817,-5.0874,-5.0944,-5.1029,-5.1065,-5.1159,-5.1268,-5.1269,-5.1391,-5.1462,-5.1591,-5.1637,-5.1732,-5.1697,-5.1739,-5.175,-5.1761,-5.1771,-5.149,-5.175,-5.1749,-5.1749,-5.1748,-5.1748,0,-5.0804,-5.085,-5.0947,-5.1052,-5.1135,-5.1107,-5.1188,-5.1259,-5.1367,-5.1436,-5.1522,-5.165,-5.1753,-5.18,-5.1901,-5.1968,-5.196,-5.1995,-5.199,-5.2,-5.1796,-5.1761,-5.1999,-5.1999,-5.1999,-5.1999,-5.1999,-5.1999,-5.0946,-5.1091,-5.1109,-5.1282,-5.1327,-5.1448,-5.1496,-5.156,-5.1615,-5.1761,-5.1847,-5.1877,-5.1937,-5.2043,-5.2136,-5.2147,-5.2185,-5.2225,-5.2231,-5.204,-5.2014,-5.199,-5.1957,-5.2233,-5.2233,-5.2427,-5.2429,-5.243]}]]